Location: El Conde
(10.2895°N, 67.2409°W)
Time: 07:58:36
(UTC+00:00)

Cosmos 2058 Rocket - Pass Details

Date: 19 May 2024
Orbit: 608 x 635 km, 82.5° (Epoch: 22 June)

Event Time Altitude Azimuth Distance (km) Brightness Sun altitude
Rises 23:41:05 0° 186° (S) 2,864 6.3 -13.8°
Reaches altitude 10° 23:43:18 10° 187° (S) 1,963 5.5 -14.3°
Maximum altitude 23:47:38 80° 274° (W) 627 3.1 -15.2°
Drops below altitude 10° 23:52:01 10° 1° (N) 1,978 5.9 -16.2°
Sets 23:54:15 0° 3° (N) 2,887 6.8 -16.7°
